Starlink 6315

operational
NORAD ID: 57236 Int'l Des: 2023-094 Owner: SPXS Country: US Constellation: starlink
LEOCIRCULAR

About Starlink 6315

Description loading...

Live Position

Loading 3D Globe...

Upcoming Passes

Altitude History

Altitude vs Time

uPlot chart will show altitude changes over time

Two-Line Element Set

1 57236U 23094U 26033.52314440 -.00000235 00000-0 -23140-5 0 9995
2 57236 43.0027 208.9606 0001059 263.8359 96.2363 15.02535804141977
Epoch: Feb 2, 2026 • Age: 19 hours

Current Status

Altitude 570.7 km
Velocity 7.58 km/s
Sub-Earth Point -40.75°S, 150.35°W
Launch Date Jul 7, 2023
Age 2.5 years
Type internet

Technical Details

Classification Payload
Mass 305.00 kg
Dry Mass 290.00 kg
Total Mass 305.00 kg
Length 0.20 m
Diameter 2.80 m
Span 9.00 m
Shape Box + pan
Manufacturer SPXS
Bus Type Starlink
Phase Status In Orbit
Owner/State SPXS/US

Large Constellations

Loading constellations...